PDT,Max TemperatureF,Mean TemperatureF,Min TemperatureF,Max Dew PointF,MeanDew PointF,Min DewpointF,Max Humidity, Mean Humidity, Min Humidity, Max Sea Level PressureIn, Mean Sea Level PressureIn, Min Sea Level PressureIn, Max VisibilityMiles, Mean VisibilityMiles, Min VisibilityMiles, Max Wind SpeedMPH, Mean Wind SpeedMPH, Max Gust SpeedMPH,PrecipitationIn, CloudCover, Events, WindDirDegrees
2013-10-1,71,60,48,50,46,43,87,63,35,30.07,30.04,30.00,10,10,8,20,11,24,0.00,0,,303
2013-10-2,68,58,48,52,45,39,100,68,40,30.04,30.01,29.98,10,8,3,25,11,31,0.00,1,,294
2013-10-3,60,50,39,39,33,28,75,50,31,30.03,30.00,29.95,10,9,7,23,14,32,0.00,0,,295
2013-10-4,66,52,39,32,13,7,70,22,10,30.25,30.15,30.03,10,9,5,26,14,40,0.00,0,,123
2013-10-5,71,58,46,18,13,7,32,18,9,30.34,30.30,30.25,10,10,7,25,14,33,0.00,0,,113
2013-10-6,75,60,44,14,11,5,25,14,8,30.28,30.23,30.15,10,10,5,22,13,29,0.00,0,,126
2013-10-7,77,58,39,23,12,5,34,18,7,30.15,30.07,30.00,10,10,5,17,6,18,0.00,0,,23
2013-10-8,69,56,44,28,24,16,46,30,13,30.00,29.91,29.79,10,9,5,17,6,23,0.00,0,,301
2013-10-9,51,45,39,39,34,25,100,68,35,29.80,29.71,29.65,10,7,1,16,9,21,0.87,5,Rain-Thunderstorm,296
2013-10-10,57,47,37,41,37,32,93,71,44,30.05,29.95,29.81,10,9,7,18,8,26,0.00,3,,303
2013-10-11,66,50,35,37,34,28,87,58,24,30.11,30.07,30.03,10,9,7,17,5,21,0.00,0,,38
2013-10-12,66,50,35,37,33,27,87,55,24,30.07,30.02,29.96,10,9,5,16,6,22,0.00,0,,309
2013-10-13,57,48,37,37,35,32,81,58,38,30.13,30.02,29.94,10,10,5,21,11,25,0.00,0,,300
2013-10-14,64,48,33,34,29,25,93,51,22,30.18,30.14,30.09,10,10,8,20,6,24,0.00,0,,120
2013-10-15,66,50,35,30,25,19,70,40,19,30.14,30.11,30.07,10,10,8,18,5,23,0.00,0,,126
2013-10-16,66,52,37,27,20,16,57,30,14,30.24,30.18,30.14,10,10,7,18,9,25,0.00,0,,117
2013-10-17,66,52,37,32,27,23,66,39,23,30.17,30.13,30.08,10,9,6,17,5,23,0.00,0,,316
2013-10-18,71,53,35,28,22,16,75,36,12,30.18,30.14,30.11,10,10,7,21,6,28,0.00,0,,125
2013-10-19,77,55,33,30,21,9,57,33,8,30.21,30.16,30.13,10,10,7,14,4,21,0.00,0,,111
2013-10-20,73,52,32,32,25,16,69,41,13,30.15,30.09,30.04,10,9,6,15,4,18,0.00,0,,311
2013-10-21,75,54,32,25,18,14,60,29,10,30.13,30.09,30.06,10,10,1,22,6,28,0.00,0,,121
2013-10-22,75,58,42,21,18,16,36,23,11,30.15,30.11,30.05,10,10,8,20,9,26,0.00,0,,125
2013-10-23,75,58,41,36,24,18,58,34,11,30.07,30.04,30.00,10,8,4,18,5,25,0.00,0,,122
2013-10-24,71,53,35,32,29,23,65,41,18,30.18,30.09,30.05,10,8,5,15,4,20,0.00,0,,318
2013-10-25,71,54,37,37,32,27,75,47,22,30.24,30.20,30.17,10,7,4,15,5,17,0.00,0,,306
2013-10-26,75,56,37,28,21,16,65,33,11,30.25,30.20,30.15,10,10,8,14,4,22,0.00,0,,118
2013-10-27,73,56,39,37,26,16,54,36,12,30.14,29.97,29.74,10,9,2,24,7,39,0.00,0,,294
2013-10-28,51,45,39,41,36,30,100,77,50,29.89,29.79,29.72,10,6,2,29,20,40,0.12,8,Rain,301
2013-10-29,46,42,37,41,37,32,100,84,66,30.02,29.96,29.90,10,8,3,20,13,23,0.06,7,Rain,309
2013-10-30,55,44,32,37,34,30,100,77,44,30.15,30.09,30.03,10,8,5,13,5,,0.00,1,,299
2013-10-31,62,46,30,32,27,19,100,56,19,30.21,30.17,30.14,10,8,4,17,7,23,0.00,0,,118